Weather observations for the past three days for
Providenciales
Metric (Imperial)
Date Time (edt) Wind (kph) Vis. (km) Weather Sky Cond. Temperature (ºC) Relative Humidity Wind Chill (°C) Heat Index (°C) Pressure Precipitation (cm)
Air Dwpt 6 hour altimeter (cm) sea level (mb) 1 hr 3 hr 6 hr
Max. Min.
02 19:00 E 11 0.00 Partly Cloudy SCT015 29 24 74% 34 0 0.0
02 18:05 E 11 0.00 Partly Cloudy SCT015 30 24 70% 35 0 0.0
02 17:00 SE 11 0.00 Partly Cloudy SCT015 32 24 63% 38 0 0.0
02 16:00 SE 11 0.00 Partly Cloudy SCT015 32 25 67% 39 0 0.0
02 15:00 E 13 0.00 Partly Cloudy SCT015 32 25 67% 39 0 0.0
02 14:00 SE 13 0.00 Partly Cloudy SCT015 32 23 59% 37 0 0.0
02 13:00 SE 19 0.00 Partly Cloudy SCT015 32 24 63% 38 0 0.0
02 12:00 SE 13 0.00 Partly Cloudy SCT012TCU 32 24 63% 38 0 0.0
02 10:00 SE 13 0.00 Partly Cloudy SCT012TCU 31 24 66% 37 0 0.0
02 09:00 SE 11 0.00 Partly Cloudy SCT012 31 24 66% 37 0 0.0
02 08:00 SE 11 0.00 Partly Cloudy SCT012 29 24 74% 34 0 0.0
02 07:00 SE 11 0.00 Mostly Cloudy SCT012 BKN018 29 24 74% 34 0 0.0
02 06:30 E 11 0.00 Partly Cloudy SCT012 28 25 84% 33 0 0.0
01 20:00 E 7 0.00 Partly Cloudy SCT012 29 23 70% 33 0 0.0
01 19:00 E 11 0.00 Partly Cloudy SCT012 30 24 70% 35 0 0.0
01 18:00 E 13 0.00 Partly Cloudy SCT012 31 24 66% 37 0 0.0
01 17:00 E 11 0.00 Partly Cloudy SCT015 31 24 66% 37 0 0.0
01 16:00 E 13 0.00 Partly Cloudy SCT012 32 25 67% 39 0 0.0
01 15:00 E 15 0.00 Partly Cloudy SCT015 32 24 63% 38 0 0.0
01 14:00 E 13 0.00 Mostly Cloudy SCT015 BKN020 32 24 63% 38 0 0.0
01 13:00 SE 15 0.00 Mostly Cloudy SCT012 BKN020 32 25 67% 39 0 0.0
01 12:00 SE 13 0.00 Mostly Cloudy SCT015 BKN020 31 25 70% 38 0 0.0
01 11:05 SE 13 0.00 Mostly Cloudy SCT015CB BKN020 29 25 79% 35 0 0.0
01 09:00 SE 19 0.00 Mostly Cloudy SCT015 BKN020 30 25 75% 36 0 0.0
01 08:30 E 11 0.00 Partly Cloudy SCT012 29 26 84% 36 0 0.0
01 06:30 E 6 0.00 Partly Cloudy SCT012 29 23 70% 33 0 0.0
31 18:00 E 9 0.00 Partly Cloudy SCT012CB 30 24 70% 35 0 0.0
31 17:00 E 9 0.00 Partly Cloudy SCT012TCU 31 25 70% 38 0 0.0
31 16:00 E 9 0.00 Partly Cloudy SCT012TCU 31 25 70% 38 0 0.0
31 15:20 E 11 0.00 Partly Cloudy SCT012TCU 32 25 67% 39 0 0.0
31 13:00 E 15 0.00 Partly Cloudy SCT012TCU 31 25 70% 38 0 0.0
31 12:00 E 11 0.00 Partly Cloudy SCT012TCU 31 24 66% 37 0 0.0
31 11:00 E 15 0.00 Partly Cloudy SCT012TCU 31 25 70% 38 0 0.0
31 10:02 NE 15 0.00 Partly Cloudy SCT012TCU 31 25 70% 38 0 0.0
31 09:00 NE 15 0.00 Partly Cloudy SCT012TCU 31 25 70% 38 0 0.0
31 07:05 NE 6 0.00 Showers in Vicinity SCT012TCU 28 25 84% 33 0 0.0
Date Time (edt) Wind (kph) Vis. (km) Weather Sky Cond. Air Dwpt Max. Min. Relative Humidity Wind Chill (°C) Heat Index (°C) altimeter (cm) sea level (mb) 1 hr 3 hr 6 hr
6 hour
Temperature (ºC) Pressure Precipitation (cm)